Location: Ostrava
(49.8330°N, 18.2830°E)
Time: 21:02:48
(UTC+01:00)

Iridium 39 - Visible Passes

Search period start: 19 February 2018 00:00
Search period end: 01 March 2018 00:00
Orbit: 725 x 751 km, 86.4° (Epoch: 18 February)

Date Brightness Start Highest point End Pass type
(mag) Time Alt. Az. Time Alt. Az. Time Alt. Az.
19 Feb 6.5 18:50:32 10° NNE 18:55:07 34° ENE 18:56:13 31° ESE visible
19 Feb 7.4 20:30:29 10° NNW 20:34:59 34° W 20:35:56 31° WSW visible
20 Feb 7.4 18:06:12 10° NNE 18:09:26 17° ENE 18:12:15 11° ESE visible
20 Feb 6.0 19:44:56 10° N 19:49:57 74° W 19:51:58 36° SSW visible
20 Feb 8.9 21:27:39 10° WNW 21:28:53 11° WNW 21:30:07 10° W visible
21 Feb 6.0 18:59:46 10° N 19:04:40 51° E 19:08:23 17° SSE visible
21 Feb 8.1 20:40:19 10° NNW 20:44:13 23° W 20:48:06 10° SW visible
22 Feb 6.9 18:15:03 10° NNE 18:19:07 24° ENE 18:23:10 10° SE visible
22 Feb 6.8 19:54:28 10° NNW 19:59:19 49° W 20:04:05 10° SSW visible
23 Feb 5.8 19:09:07 10° N 19:14:09 77° E 19:19:07 10° S visible
23 Feb 8.7 20:50:27 10° NW 20:53:23 16° WNW 20:56:19 10° WSW visible
24 Feb 6.5 18:24:09 10° N 18:28:45 35° ENE 18:33:17 10° SE visible
24 Feb 7.6 20:04:10 10° NNW 20:08:36 33° W 20:13:00 10° SW visible
25 Feb 6.1 19:18:34 10° N 19:23:34 72° W 19:28:29 10° S visible
25 Feb 9.1 21:01:41 10° WNW 21:02:28 10° WNW 21:03:17 10° W visible
26 Feb 6.0 18:33:23 10° N 18:38:17 52° E 18:43:08 10° SSE visible
26 Feb 8.3 20:14:00 10° NNW 20:17:49 22° W 20:21:37 10° SW visible
27 Feb 9.1 05:52:04 10° E 05:54:12 13° ENE 05:56:21 10° NE visible
27 Feb 6.9 19:28:07 10° NNW 19:32:55 47° W 19:37:39 10° SSW visible
28 Feb 5.8 18:42:45 10° N 18:47:46 79° E 18:52:43 10° S visible
28 Feb 8.8 20:24:09 10° NW 20:26:58 15° WNW 20:29:47 10° WSW visible
